Total_Precipitation_Accumulation
0.16 0.18 0.22 0.19 0.20 0.22 0.25 0.36 0.53 0.39 0.10 0.02 0.02 0.04 0.08 0.13 0.14 0.12 0.11 0.14 0.19 0.24 0.29 0.33 0.41 0.58 0.90 1.38 1.95 2.85 3.44 3.09 2.33 1.78 1.63 1.86 2.23 2.66
0.22 0.23 0.23 0.23 0.25 0.27 0.29 0.30 0.39 0.49 0.29 0.04 0.02 0.04 0.09 0.16 0.17 0.14 0.13 0.14 0.16 0.18 0.20 0.23 0.29 0.41 0.63 0.95 1.36 1.92 2.80 3.28 3.05 2.53 2.08 2.08 2.21 2.54
0.20 0.24 0.25 0.27 0.35 0.37 0.40 0.39 0.35 0.39 0.39 0.09 0.02 0.05 0.12 0.20 0.20 0.14 0.14 0.13 0.11 0.14 0.16 0.20 0.24 0.33 0.48 0.70 0.95 1.31 1.93 2.69 3.14 3.15 2.76 2.45 2.33 2.36
0.24 0.27 0.30 0.32 0.38 0.42 0.50 0.51 0.43 0.37 0.42 0.26 0.07 0.05 0.12 0.23 0.27 0.21 0.18 0.16 0.11 0.12 0.16 0.21 0.27 0.33 0.42 0.56 0.74 0.98 1.33 1.89 2.46 2.86 2.94 2.62 2.43 2.44
0.27 0.34 0.38 0.41 0.40 0.43 0.53 0.57 0.51 0.43 0.43 0.39 0.18 0.08 0.12 0.23 0.33 0.31 0.26 0.24 0.18 0.15 0.16 0.19 0.24 0.31 0.38 0.46 0.61 0.77 0.95 1.15 1.58 2.17 2.74 2.82 2.61 2.55
0.21 0.26 0.38 0.52 0.56 0.60 0.62 0.60 0.62 0.62 0.57 0.52 0.36 0.21 0.18 0.25 0.41 0.47 0.40 0.34 0.29 0.23 0.20 0.19 0.22 0.28 0.33 0.36 0.40 0.51 0.70 0.96 1.26 1.71 2.20 2.62 2.68 2.62
0.19 0.21 0.33 0.54 0.71 0.90 0.96 0.85 0.85 0.91 0.86 0.80 0.67 0.49 0.37 0.40 0.49 0.54 0.60 0.49 0.44 0.35 0.26 0.21 0.21 0.21 0.21 0.27 0.32 0.37 0.49 0.68 0.93 1.27 1.70 2.08 2.41 2.58
0.23 0.22 0.29 0.50 0.65 0.75 0.88 0.91 0.98 1.13 1.19 1.12 0.97 0.78 0.55 0.46 0.50 0.62 0.75 0.81 0.68 0.50 0.39 0.31 0.28 0.26 0.21 0.20 0.25 0.31 0.41 0.56 0.76 1.01 1.31 1.64 2.00 2.34
0.21 0.20 0.24 0.36 0.48 0.57 0.61 0.64 0.70 0.86 1.11 1.24 1.19 0.89 0.70 0.57 0.68 0.80 0.81 0.91 0.81 0.73 0.71 0.61 0.40 0.34 0.27 0.28 0.32 0.33 0.40 0.50 0.62 0.80 1.07 1.33 1.63 1.98
0.19 0.17 0.15 0.22 0.36 0.54 0.63 0.59 0.55 0.63 0.88 1.13 1.30 1.12 0.93 0.89 1.05 1.21 1.22 1.17 1.00 0.94 0.93 1.00 0.70 0.49 0.39 0.35 0.36 0.33 0.37 0.44 0.53 0.65 0.84 1.06 1.29 1.61
0.18 0.16 0.13 0.14 0.29 0.49 0.53 0.48 0.42 0.49 0.61 0.85 1.01 1.04 1.02 1.14 1.36 1.67 1.74 1.64 1.37 1.12 1.04 1.06 1.01 0.87 0.76 0.62 0.51 0.43 0.38 0.41 0.48 0.57 0.70 0.86 1.08 1.44
0.16 0.15 0.18 0.23 0.32 0.41 0.42 0.45 0.54 0.49 0.46 0.50 0.53 0.56 0.62 0.73 1.06 1.49 1.72 1.74 1.52 1.42 1.25 1.12 1.18 1.21 1.37 1.10 0.79 0.56 0.44 0.45 0.47 0.52 0.60 0.68 0.87 1.07
0.20 0.20 0.15 0.24 0.31 0.34 0.40 0.45 0.60 0.56 0.48 0.52 0.51 0.47 0.45 0.54 0.71 1.02 1.43 1.73 1.73 1.56 1.38 1.40 1.52 1.28 1.33 1.31 1.05 0.77 0.54 0.47 0.46 0.53 0.59 0.63 0.71 0.81
0.21 0.17 0.13 0.20 0.26 0.33 0.37 0.42 0.48 0.50 0.47 0.45 0.40 0.37 0.40 0.48 0.60 0.78 1.04 1.34 1.52 1.47 1.31 1.44 1.75 1.45 1.20 1.09 1.03 0.95 0.72 0.59 0.50 0.49 0.51 0.68 0.77 0.81
0.29 0.28 0.21 0.24 0.25 0.22 0.22 0.29 0.34 0.34 0.41 0.43 0.37 0.32 0.37 0.47 0.54 0.62 0.72 0.94 1.15 1.21 1.24 1.34 1.58 1.58 1.40 1.15 0.88 0.83 0.82 0.82 0.67 0.58 0.56 0.57 0.60 0.64
0.31 0.25 0.22 0.21 0.17 0.13 0.12 0.14 0.16 0.22 0.33 0.39 0.36 0.30 0.29 0.36 0.46 0.59 0.70 0.81 1.01 1.10 1.18 1.34 1.59 1.79 1.68 1.18 0.93 0.80 0.71 0.88 0.86 0.71 0.64 0.61 0.57 0.51
0.39 0.37 0.28 0.22 0.20 0.16 0.12 0.10 0.09 0.13 0.20 0.25 0.30 0.33 0.34 0.36 0.39 0.49 0.68 0.81 0.96 1.03 1.15 1.40 1.68 1.80 1.82 1.58 1.27 0.93 0.70 0.70 0.79 0.76 0.73 0.73 0.72 0.61
0.42 0.42 0.27 0.20 0.19 0.17 0.16 0.13 0.11 0.11 0.13 0.20 0.27 0.32 0.36 0.40 0.41 0.44 0.59 0.78 0.91 0.98 1.05 1.25 1.60 1.84 1.97 1.94 1.55 1.11 0.84 0.77 0.87 0.87 0.78 0.76 0.83 0.78
0.32 0.25 0.18 0.15 0.15 0.15 0.16 0.16 0.13 0.10 0.13 0.19 0.23 0.25 0.30 0.37 0.41 0.44 0.51 0.66 0.79 0.90 1.02 1.13 1.39 1.70 1.84 1.94 1.91 1.42 1.03 0.89 0.99 1.13 1.01 0.79 0.73 0.78
0.18 0.18 0.17 0.15 0.16 0.17 0.17 0.17 0.15 0.13 0.14 0.15 0.17 0.19 0.25 0.33 0.38 0.40 0.47 0.60 0.71 0.82 0.94 1.05 1.27 1.52 1.65 1.60 1.65 1.64 1.46 1.14 1.02 1.17 1.19 1.01 0.89 0.96
0.14 0.15 0.15 0.17 0.18 0.18 0.17 0.16 0.16 0.15 0.13 0.13 0.14 0.15 0.19 0.27 0.33 0.34 0.41 0.50 0.62 0.73 0.82 0.91 1.09 1.29 1.50 1.54 1.43 1.39 1.56 1.58 1.21 1.10 1.16 1.18 1.13 1.14
0.16 0.17 0.16 0.17 0.19 0.19 0.18 0.17 0.17 0.14 0.12 0.13 0.12 0.13 0.15 0.22 0.28 0.31 0.38 0.45 0.52 0.61 0.72 0.83 0.96 1.17 1.43 1.57 1.47 1.32 1.43 1.65 1.64 1.40 1.24 1.12 1.03 0.97
0.20 0.20 0.18 0.18 0.18 0.19 0.19 0.18 0.17 0.14 0.12 0.13 0.13 0.12 0.14 0.18 0.21 0.27 0.34 0.40 0.47 0.53 0.63 0.80 0.95 1.10 1.33 1.48 1.50 1.37 1.32 1.44 1.49 1.45 1.54 1.34 0.94 0.67